Regional Weather Roundup
Issued by NWS Bismarck, ND

Home | Current Version | Previous Version | Text Only | Print | Product List | Glossary On
Versions: 1 2 3 4 5 6 7 8 9 10 11 12 13 14 15 16 17 18 19 20 21 22 23 24 25 26 27 28 29 30 31 32 33 34 35 36 37 38 39 40 41 42 43 44 45 46 47 48 49 50
000
ASUS43 KBIS 300502
RWRBIS

NWR BROADCAST TEXT
NATIONAL WEATHER SERVICE BISMARCK ND
1200 AM CDT SUN AUG 30 2015

NOTE: "FAIR" INDICATES FEW OR NO CLOUDS BELOW 12,000 FEET WITH NO
SIGNIFICANT WEATHER AND/OR OBSTRUCTIONS TO VISIBILITY.


CITY           SKY/WX    TMP DP  RH WIND       PRES   REMARKS
WILLISTON      MOCLDY    70  52  52 CALM      29.74F HAZE
MINOT          CLOUDY    73  60  63 CALM      29.74F HAZE
MINOT AFB      CLOUDY    71  61  70 E5        29.74F
BISMARCK       PTCLDY    70  63  78 SE8       29.81F
DICKINSON      CLOUDY    67  52  58 S9        29.80F
GARRISON         N/A     75  63  66 S7        29.78S
HETTINGER ARPT MOCLDY    73  53  49 SE9       29.85F
JAMESTOWN      CLEAR     71  69  93 S14       29.83F
HAZEN          FAIR      75  61  60 S15       29.78S
STANLEY        FAIR      68  57  68 SE6       29.79S
$$

CITY           SKY/WX    TMP DP  RH WIND       PRES   REMARKS
GRAND FORKS    CLEAR     70  67  90 S12       29.80S
GRAND FORKS AF CLEAR     71  68  93 S12       29.80F
DEVILS LAKE    MOCLDY    73  64  73 S10       29.79S
FARGO          CLEAR     70  65  84 S13       29.86S
GRAFTON        FAIR      66  66 100 SE6       29.79F
GWINNER          N/A     70  70 100 S9        29.88S
LANGDON        FAIR      70  68  94 SW10      29.81S
$$

CITY           SKY/WX    TMP DP  RH WIND       PRES   REMARKS
ABERDEEN       CLEAR     68  64  87 S10       29.89S
MOBRIDGE       CLEAR     72  69  90 SE10      29.84S
RAPID CITY     PTCLDY    71  47  42 SE7       29.92F
GLASGOW        MOCLDY    77  47  34 E13       29.67F HAZE
SIDNEY         CLOUDY    72  54  53 CALM      29.73F
WOLF POINT     CLOUDY    75  51  43 NE8       29.70S HAZE
GLENDIVE       MOCLDY    77  48  36 S6        29.77S
MILES CITY     CLOUDY    84  45  25 SE14      29.73F
BAKER          MOCLDY    73  52  47 SE9       29.82F
$$

CITY           SKY/WX    TMP DP  RH WIND       PRES   REMARKS
BILLINGS       CLOUDY    79  40  24 S6        29.79F
GREAT FALLS    CLOUDY    66  51  58 SW8       29.78R
$$



USA.gov is the U.S. government's official web portal to all federal, state and local government web resources and services.